Hatteras, NC

2:21 AM EDT on October 23, 2019 (GMT -0400)
Mitchell

Weather History for KHSE - August, 2019

Change the Weather History Date:

Tuesday, August 27, 2019

  Actual Average Record
Temperature  
Mean Temperature 80 °F 78 °F  
Max Temperature 84 °F 83 °F 91 °F (1965)
Min Temperature 75 °F 72 °F 60 °F (1982)
Degree Days  
Heating Degree Days 0 0  
Month to date heating degree days 0 0  
Since 1 June heating degree days 0 3  
Since 1 July heating degree days 0 0  
Cooling Degree Days 15 13  
Month to date cooling degree days 460 368  
Year to date cooling degree days 1760 1256  
Since 1 June cooling degree days 1378 1113  
Growing Degree Days 30 (Base 50)    
Moisture  
Dew Point 74 °F    
Average Humidity 82    
Maximum Humidity 94    
Minimum Humidity 72    
Precipitation  
Precipitation 0.01 in 0.24 in 3.43 in (1910)
Month to date precipitation 7.03 5.94  
Year to date precipitation 38.75 36.20  
Snow  
Snow 0.00 in - - ()
Month to date snowfall 0.0  
Since 1 July snowfall 0.0  
Snow Depth 0.00 in    
Sea Level Pressure  
Sea Level Pressure 29.93 in    
Wind  
Wind Speed 7 mph ()    
Max Wind Speed 14 mph    
Max Gust Speed 22 mph    
Visibility 10.0 miles    
Events Rain    
T = Trace of Precipitation, MM = Missing Value Source: Averaged Metar Reports

Daily Weather History Graph

Daily Weather History Graph

Search for Another Location

Airport or City:

Astronomy

Aug. 27, 2019 Rise Set
Actual Time 6:31 AM EDT 7:36 PM EDT
Civil Twilight 6:04 AM EDT 8:02 PM EDT
Nautical Twilight 5:33 AM EDT 8:33 PM EDT
Astronomical Twilight 5:01 AM EDT 9:05 PM EDT
Moon 3:01 AM EDT (8/27) 5:47 PM EDT (8/27)
Length of Visible Light 13h 57m
Length of Day
13h 05m
Waning Crescent, 11% of the Moon is Illuminated
Aug 27
Waning Crescent
Aug 30
New
Sep 5
First Quarter
Sep 14
Full
Sep 21
Last Quarter

Hourly Weather History & Observations

Time (EDT) Temp. Heat Index Dew Point Humidity Pressure Visibility Wind Dir Wind Speed Gust Speed Precip Events Conditions
12:51 AM 78.1 °F - 73.9 °F 87% 29.99 in 10.0 mi Variable 4.6 mph - N/A   Overcast
1:31 AM 78.1 °F - 73.9 °F 87% 29.98 in 10.0 mi Variable 5.8 mph - 0.00 in Rain Light Rain
1:51 AM 78.1 °F - 73.9 °F 87% 29.97 in 10.0 mi NNE 6.9 mph - 0.01 in   Overcast
2:19 AM 78.1 °F - 73.9 °F 87% 29.97 in 10.0 mi Variable 6.9 mph - N/A   Overcast
2:51 AM 78.1 °F - 73.9 °F 87% 29.97 in 10.0 mi Variable 5.8 mph - N/A   Overcast
3:35 AM 78.1 °F - 73.9 °F 87% 29.95 in 10.0 mi NNE 9.2 mph 17.3 mph N/A   Overcast
3:51 AM 77.0 °F - 73.9 °F 90% 29.94 in 10.0 mi NNE 8.1 mph - N/A   Overcast
4:20 AM 77.0 °F - 73.9 °F 90% 29.93 in 10.0 mi Variable 5.8 mph - N/A   Mostly Cloudy
4:51 AM 77.0 °F - 73.9 °F 90% 29.93 in 10.0 mi Variable 6.9 mph - N/A   Mostly Cloudy
5:51 AM 77.0 °F - 73.0 °F 88% 29.92 in 10.0 mi NNE 10.4 mph 18.4 mph N/A   Overcast
6:51 AM 77.0 °F - 73.0 °F 88% 29.92 in 10.0 mi NE 10.4 mph 21.9 mph N/A   Mostly Cloudy
7:51 AM 78.1 °F - 73.0 °F 84% 29.94 in 10.0 mi NNE 11.5 mph 16.1 mph N/A   Overcast
8:51 AM 79.0 °F - 73.0 °F 82% 29.95 in 10.0 mi NNE 10.4 mph 16.1 mph N/A   Mostly Cloudy
9:51 AM 81.0 °F 86.2 °F 73.9 °F 79% 29.96 in 10.0 mi Variable 6.9 mph 16.1 mph N/A   Mostly Cloudy
10:19 AM 81.0 °F 85.8 °F 73.0 °F 77% 29.96 in 10.0 mi North 8.1 mph - N/A   Scattered Clouds
10:51 AM 82.0 °F 87.4 °F 73.0 °F 74% 29.96 in 10.0 mi North 8.1 mph - N/A   Partly Cloudy
11:31 AM 82.0 °F 87.9 °F 73.9 °F 76% 29.97 in 10.0 mi Variable 5.8 mph - N/A   Mostly Cloudy
11:51 AM 82.9 °F 89.4 °F 73.9 °F 74% 29.96 in 10.0 mi Variable 6.9 mph - N/A   Mostly Cloudy
12:51 PM 84.9 °F 93.3 °F 75.0 °F 72% 29.95 in 10.0 mi North 8.1 mph - N/A   Mostly Cloudy
1:08 PM 82.9 °F 90.2 °F 75.0 °F 77% 29.94 in 10.0 mi NNE 9.2 mph 16.1 mph N/A   Scattered Clouds
1:19 PM 84.0 °F 91.9 °F 75.0 °F 74% 29.93 in 10.0 mi North 8.1 mph 18.4 mph N/A   Mostly Cloudy
1:51 PM 84.0 °F 91.9 °F 75.0 °F 74% 29.93 in 10.0 mi North 6.9 mph - N/A   Mostly Cloudy
2:01 PM 84.9 °F 93.3 °F 75.0 °F 72% 29.92 in 10.0 mi North 10.4 mph - N/A   Scattered Clouds
2:39 PM 82.9 °F 90.2 °F 75.0 °F 77% 29.91 in 10.0 mi North 9.2 mph 17.3 mph N/A   Mostly Cloudy
2:51 PM 82.9 °F 89.4 °F 73.9 °F 74% 29.91 in 10.0 mi North 8.1 mph 16.1 mph N/A   Mostly Cloudy
3:08 PM 84.0 °F 91.9 °F 75.0 °F 74% 29.90 in 10.0 mi North 8.1 mph - N/A   Scattered Clouds
3:19 PM 84.9 °F 93.3 °F 75.0 °F 72% 29.90 in 10.0 mi NNE 8.1 mph 20.7 mph N/A   Mostly Cloudy
3:27 PM 84.0 °F 91.2 °F 73.9 °F 72% 29.90 in 10.0 mi NNE 10.4 mph 19.6 mph N/A   Scattered Clouds
3:51 PM 84.0 °F 91.9 °F 75.0 °F 74% 29.90 in 10.0 mi Variable 6.9 mph 17.3 mph N/A   Scattered Clouds
4:02 PM 82.9 °F 90.2 °F 75.0 °F 77% 29.90 in 10.0 mi North 10.4 mph 18.4 mph N/A   Mostly Cloudy
4:11 PM 82.0 °F 87.9 °F 73.9 °F 76% 29.90 in 10.0 mi NNE 10.4 mph 19.6 mph N/A   Scattered Clouds
4:51 PM 82.9 °F 90.2 °F 75.0 °F 77% 29.90 in 10.0 mi North 8.1 mph 17.3 mph N/A   Clear
5:21 PM 82.0 °F 88.6 °F 75.0 °F 79% 29.90 in 10.0 mi Variable 5.8 mph 18.4 mph N/A   Mostly Cloudy
5:51 PM 80.1 °F 84.5 °F 73.9 °F 81% 29.90 in 10.0 mi North 10.4 mph 18.4 mph N/A   Mostly Cloudy
6:51 PM 78.1 °F - 73.9 °F 87% 29.90 in 10.0 mi NNE 9.2 mph - N/A   Overcast
7:51 PM 78.1 °F - 73.9 °F 87% 29.91 in 10.0 mi Variable 6.9 mph - N/A   Overcast
8:51 PM 75.9 °F - 73.0 °F 91% 29.92 in 10.0 mi North 9.2 mph 17.3 mph N/A   Mostly Cloudy
9:51 PM 75.9 °F - 73.9 °F 94% 29.91 in 10.0 mi NNE 9.2 mph 17.3 mph N/A   Mostly Cloudy
10:51 PM 75.9 °F - 73.9 °F 94% 29.91 in 10.0 mi Variable 6.9 mph - N/A   Overcast
11:51 PM 75.9 °F - 73.9 °F 94% 29.90 in 10.0 mi North 6.9 mph - N/A   Overcast